Regional Weather Roundup
Issued by NWS

Home | Current Version | Previous Version | Text Only | Print | Product List | Glossary Off
Versions: 1 2 3 4 5 6 7 8 9 10 11 12 13 14 15 16 17 18 19 20 21 22 23 24 25 26 27 28 29 30 31 32 33 34 35 36 37 38 39 40 41 42 43 44 45 46 47 48 49 50

000
ASUS43 KOAX 201802
RWRNE

WEATHER ROUNDUP FOR NEBRASKA
NATIONAL WEATHER SERVICE OMAHA NE
1200 PM CST TUE FEB 20 2018

NOTES: SATELLITE DATA IS BEING USED TO AUGMENT CLOUD COVER ABOVE
       12000 FEET.
       "FAIR" INDICATES FEW OR NO CLOUDS BELOW 12,000 FEET WITH NO
       SIGNIFICANT WEATHER AND/OR OBSTRUCTIONS TO VISIBILITY.


NEZ001>004-019>022-054>056-201900-
NEBRASKA PANHANDLE

CITY           SKY/WX    TMP DP  RH WIND       PRES   REMARKS
SCOTTSBLUFF    FAIR       5  -6  60 NW5       30.08R WCI  -4
6HR MIN TEMP: -11; 6HR MAX TEMP:   5;

ALLIANCE       FAIR      -2  -9  72 W7        30.06R WCI -15
6HR MIN TEMP: -23; 6HR MAX TEMP:  -1;

CHADRON        FAIR       0  -9  65 W7        30.14R WCI -13
6HR MIN TEMP: -17; 6HR MAX TEMP:   0;

GORDON         FAIR       1  -8  67 W7        30.08S WCI -12
6HR MIN TEMP: -11; 6HR MAX TEMP:   1;

KIMBALL        FAIR       1  -7  68 W7        30.00R WCI -12
SIDNEY         FAIR       6  -7  54 N15       30.05R WCI -12
6HR MIN TEMP:  -8; 6HR MAX TEMP:   6;

$$

NEZ057>060-069>072-079>082-201900-
SOUTHWEST NEBRASKA

CITY           SKY/WX    TMP DP  RH WIND       PRES   REMARKS
NORTH PLATTE   FAIR      10  -3  55 NW15      30.15R WCI  -7
6HR MIN TEMP:   1; 6HR MAX TEMP:  10;

IMPERIAL       FAIR      11  -2  56 N15       30.12R WCI  -5
6HR MIN TEMP:   1; 6HR MAX TEMP:  11;

LEXINGTON      FAIR      14   5  67 NW18G24   30.13S WCI  -3
MCCOOK         FAIR      14   2  58 NW22G28   30.14F WCI  -4
6HR MIN TEMP:   6; 6HR MAX TEMP:  15;

OGALLALA       FAIR       8  -2  65 NW17      30.12R HAZE    WCI -10
$$

NEZ005>010-023>029-035>040-094-201900-
NORTH CENTRAL NEBRASKA

CITY           SKY/WX    TMP DP  RH WIND       PRES   REMARKS
VALENTINE      FAIR       6  -4  63 NW14      30.15R WCI -11
6HR MIN TEMP:   2; 6HR MAX TEMP:   6; 6HR PCP:  0.03;

AINSWORTH      FAIR       6  -1  73 NW18      30.13R WCI -13
BROKEN BOW     FAIR       9  -1  64 NW16      30.12S WCI  -8
6HR MIN TEMP:   3; 6HR MAX TEMP:   9; 6HR PCP: TRACE;

O`NEILL        FAIR       8   1  75 NW23G29   30.14R WCI -13
ORD            FAIR      10   1  67 NW23G32   30.13F WCI -10
6HR MIN TEMP:   4; 6HR MAX TEMP:  10; 6HR PCP: TRACE;

THEDFORD       FAIR       7  -2  67 NW14      30.12R WCI -10
$$

NEZ041-046>049-061>064-073>077-083>087-201900-
SOUTH CENTRAL NEBRASKA

CITY           SKY/WX    TMP DP  RH WIND       PRES   REMARKS
GRAND ISLAND   FAIR      14   4  64 NW24G32   30.13S WCI  -5
6HR MIN TEMP:   8; 6HR MAX TEMP:  14; 6HR PCP: TRACE;

AURORA         PTSUNNY   14   6  69 NW24      30.13R WCI  -5
HASTINGS       FAIR      14   4  64 N23G33    30.12S WCI  -5
6HR MIN TEMP:   8; 6HR MAX TEMP:  14;

HEBRON         PTSUNNY   19  11  70 N14G21    30.16R WCI   5
HOLDREGE       FAIR      14   5  67 NW18G25   30.11S WCI  -3
KEARNEY        FAIR      14   3  61 N21G30    30.11F WCI  -4
YORK           PTSUNNY   16   9  73 NW23G29   30.13R WCI  -2
$$

NEZ011>018-030>034-042>045-201900-
NORTHEAST NEBRASKA

CITY           SKY/WX    TMP DP  RH WIND       PRES   REMARKS
NORFOLK        PTSUNNY   10   4  76 NW21G31   30.11R WCI  -9
6HR MIN TEMP:   6; 6HR MAX TEMP:  11;

ALBION         FAIR      12   4  70 NW24      30.12F WCI  -7
BLAIR          CLOUDY    17  12  82 NW10G16   30.10R WCI   5
COLUMBUS       PTSUNNY   14   7  73 NW23      30.15R WCI  -5
FREMONT        CLOUDY    17  11  78 NW20      30.13R WCI   0
TEKAMAH        PTSUNNY   16  10  77 NW22G30   30.13R WCI  -2
6HR MIN TEMP:  13; 6HR MAX TEMP:  17;

WAYNE          CLOUDY    11   5  76 NW16      30.12R WCI  -6
$$

NEZ050>053-065>068-078-088>093-201900-
SOUTHEAST NEBRASKA

CITY           SKY/WX    TMP DP  RH WIND       PRES   REMARKS
LINCOLN        FAIR      19  10  68 NW22G30   30.15R WCI   2
6HR MIN TEMP:  14; 6HR MAX TEMP:  19; 6HR PCP: TRACE;

OMAHA EPPLEY   FLURRIES  18  11  74 NW18      30.12R WCI   2
6HR MIN TEMP:  17; 6HR MAX TEMP:  21;

BEATRICE       PTSUNNY   21  13  70 NW17      30.14R WCI   7
FALLS CITY     CLOUDY    22  15  75 NW18G28   30.11R WCI   7
6HR MIN TEMP:  21; 6HR MAX TEMP:  23;

NEBRASKA CITY  PTSUNNY   20  17  85 N18       30.10R WCI   5
PLATTSMOUTH    CLOUDY    18  12  80 NW17      30.10R WCI   2
$$

NEZ044-045-051>053-067-201900-
OMAHA AREA

CITY           SKY/WX    TMP DP  RH WIND       PRES   REMARKS
OMAHA EPPLEY   FLURRIES  18  11  74 NW18      30.12R WCI   2
6HR MIN TEMP:  17; 6HR MAX TEMP:  21;

BLAIR          CLOUDY    17  12  82 NW10G16   30.10R WCI   5
FREMONT        CLOUDY    17  11  78 NW20      30.13R WCI   0
MILLARD        CLOUDY    18  11  73 NW10G20   30.13R WCI   7
OFFUTT AFB     FLURRIES  19  11  71 NW14G21   30.12R WCI   5
PLATTSMOUTH    CLOUDY    18  12  80 NW17      30.10R WCI   2
WAHOO          MOCLDY    18  12  76 NW16      30.12S WCI   3
$$




USA.gov is the U.S. government's official web portal to all federal, state and local government web resources and services.